Pittsfield, IL

6:13 AM CST on December 06, 2016 (GMT -0600)
Pittsfield Penstone Municipal

Weather History for KPPQ - December, 2011

Change the Weather History Date:

Wednesday, December 28, 2011

  Actual Average (KUIN) Record (KUIN)
Temperature  
Mean Temperature 35 °F 27 °F  
Max Temperature 43 °F 35 °F 70 °F (1984)
Min Temperature 27 °F 19 °F -20 °F (1924)
Degree Days  
Heating Degree Days 30 38  
Month to date heating degree days 977  
Since 1 July heating degree days 2077  
Cooling Degree Days 0 0  
Month to date cooling degree days 0  
Year to date cooling degree days 1094  
Moisture  
Dew Point 28 °F    
Average Humidity 79    
Maximum Humidity 91    
Minimum Humidity 64    
Precipitation  
Precipitation 0.00 in 0.06 in 1.08 in (2015)
Month to date precipitation 2.08  
Year to date precipitation 37.16  
Sea Level Pressure  
Sea Level Pressure 30.04 in    
Wind  
Wind Speed 5 mph (SW)    
Max Wind Speed 10 mph    
Max Gust Speed -    
Visibility 10 miles    
Events      
T = Trace of Precipitation, MM = Missing Value Source: NWS Daily Summary

Daily Weather History Graph

Daily Weather History Graph

Search for Another Location

Airport or City:

Trip Planner

Search our weather history database for the weather conditions in past years. The results will help you decide how hot, cold, wet, or windy it might be!

Date:

Astronomy

Dec. 28, 2011 Rise Set
Actual Time 7:23 AM CST 4:46 PM CST
Civil Twilight 6:52 AM CST 5:16 PM CST
Nautical Twilight 6:18 AM CST 5:50 PM CST
Astronomical Twilight 5:46 AM CST 6:23 PM CST
Moon 9:49 AM CST (12/28) 9:21 PM CST (12/28)
Length of Visible Light 10h 23m
Length of Day
9h 23m
Waxing Crescent, 18% of the Moon is Illuminated
Dec 28
Waxing Crescent
Jan 1
First Quarter
Jan 9
Full
Jan 16
Last Quarter
Jan 23
New

Hourly Weather History & Observations

Time (CST) Temp. Windchill Dew Point Humidity Pressure Visibility Wind Dir Wind Speed Gust Speed Precip Events Conditions
12:15 AM 30.0 °F 24.1 °F 25.3 °F 83% 30.08 in 10.0 mi WNW 5.8 mph - N/A   Clear
12:35 AM 30.2 °F 26.7 °F 25.3 °F 82% 30.08 in 10.0 mi WNW 3.5 mph - N/A   Clear
12:55 AM 29.7 °F 26.1 °F 25.2 °F 83% 30.08 in 10.0 mi WNW 3.5 mph - N/A   Clear
1:15 AM 28.9 °F 25.2 °F 25.2 °F 86% 30.08 in 10.0 mi WSW 3.5 mph - N/A   Clear
1:35 AM 29.1 °F 25.4 °F 25.3 °F 86% 30.09 in 10.0 mi West 3.5 mph - N/A   Clear
1:55 AM 29.3 °F 24.3 °F 25.7 °F 86% 30.09 in 10.0 mi WSW 4.6 mph - N/A   Scattered Clouds
2:15 AM 29.8 °F 26.3 °F 25.5 °F 84% 30.09 in 10.0 mi West 3.5 mph - N/A   Scattered Clouds
2:35 AM 29.5 °F 24.5 °F 25.9 °F 86% 30.09 in 10.0 mi West 4.6 mph - N/A   Scattered Clouds
2:55 AM 29.7 °F 24.7 °F 26.1 °F 86% 30.08 in 10.0 mi WSW 4.6 mph - N/A   Scattered Clouds
3:15 AM 29.3 °F 25.6 °F 25.7 °F 86% 30.08 in 10.0 mi West 3.5 mph - N/A   Scattered Clouds
3:35 AM 29.1 °F 24.1 °F 25.5 °F 86% 30.09 in 10.0 mi West 4.6 mph - N/A   Clear
3:55 AM 28.6 °F 23.5 °F 25.5 °F 88% 30.09 in 10.0 mi West 4.6 mph - N/A   Scattered Clouds
4:15 AM 28.4 °F 24.6 °F 25.0 °F 87% 30.08 in 10.0 mi WSW 3.5 mph - N/A   Scattered Clouds
4:35 AM 28.4 °F 24.6 °F 25.3 °F 88% 30.07 in 10.0 mi West 3.5 mph - N/A   Mostly Cloudy
4:55 AM 28.9 °F - 25.5 °F 87% 30.07 in 10.0 mi Calm Calm - N/A   Overcast
5:15 AM 29.1 °F - 25.5 °F 86% 30.08 in 10.0 mi Calm Calm - N/A   Overcast
5:35 AM 29.3 °F - 25.7 °F 86% 30.08 in 10.0 mi Calm Calm - N/A   Overcast
5:55 AM 28.9 °F 25.2 °F 25.5 °F 87% 30.09 in 10.0 mi West 3.5 mph - N/A   Mostly Cloudy
6:15 AM 27.5 °F 23.6 °F 25.2 °F 91% 30.09 in 10.0 mi SW 3.5 mph - N/A   Clear
6:35 AM 27.9 °F 24.0 °F 25.0 °F 89% 30.09 in 10.0 mi WSW 3.5 mph - N/A   Clear
6:55 AM 27.5 °F 22.2 °F 25.2 °F 91% 30.08 in 10.0 mi SW 4.6 mph - N/A   Clear
7:15 AM 27.5 °F 23.6 °F 24.8 °F 90% 30.08 in 10.0 mi WSW 3.5 mph - N/A   Clear
7:35 AM 27.5 °F - 24.6 °F 89% 30.08 in 10.0 mi Calm Calm - N/A   Clear
7:55 AM 27.5 °F 23.6 °F 25.2 °F 91% 30.08 in 10.0 mi SSW 3.5 mph - N/A   Clear
8:15 AM 27.9 °F - 25.5 °F 91% 30.08 in 10.0 mi Calm Calm - N/A   Clear
8:35 AM 28.4 °F 24.6 °F 25.7 °F 90% 30.08 in 10.0 mi NW 3.5 mph - N/A   Clear
8:55 AM 29.3 °F 24.3 °F 26.1 °F 88% 30.09 in 10.0 mi WSW 4.6 mph - N/A   Clear
9:15 AM 30.7 °F 24.9 °F 26.6 °F 85% 30.09 in 10.0 mi SW 5.8 mph - N/A   Clear
9:35 AM 32.0 °F 25.6 °F 26.6 °F 80% 30.09 in 10.0 mi SW 6.9 mph - N/A   Clear
9:55 AM 33.4 °F 25.4 °F 26.6 °F 76% 30.08 in 10.0 mi SSW 10.4 mph - N/A   Clear
10:15 AM 33.8 °F 27.7 °F 26.1 °F 73% 30.08 in 10.0 mi SW 6.9 mph - N/A   Clear
10:35 AM 34.5 °F 29.4 °F 26.8 °F 73% 30.08 in 10.0 mi SW 5.8 mph - N/A   Clear
10:55 AM 36.5 °F 31.8 °F 28.2 °F 72% 30.07 in 10.0 mi SSW 5.8 mph - N/A   Clear
11:15 AM 37.0 °F 31.0 °F 27.7 °F 69% 30.06 in 10.0 mi SW 8.1 mph - N/A   Scattered Clouds
11:35 AM 38.7 °F 32.9 °F 28.2 °F 66% 30.05 in 10.0 mi SW 8.1 mph - N/A   Clear
11:55 AM 39.2 °F 35.0 °F 28.0 °F 64% 30.03 in 10.0 mi SW 5.8 mph - N/A   Clear
12:15 PM 39.9 °F 35.8 °F 29.1 °F 65% 30.01 in 10.0 mi SSW 5.8 mph - N/A   Scattered Clouds
12:35 PM 41.2 °F 36.6 °F 30.4 °F 65% 30.01 in 10.0 mi SSW 6.9 mph - N/A   Mostly Cloudy
12:55 PM 41.0 °F 35.8 °F 30.7 °F 67% 30.00 in 10.0 mi South 8.1 mph - N/A   Scattered Clouds
1:15 PM 41.0 °F 36.4 °F 31.1 °F 68% 29.98 in 10.0 mi South 6.9 mph - N/A   Scattered Clouds
1:35 PM 40.6 °F 34.3 °F 30.7 °F 68% 29.97 in 10.0 mi SSE 10.4 mph - N/A   Mostly Cloudy
1:55 PM 42.3 °F 36.8 °F 31.6 °F 66% 29.96 in 10.0 mi SSE 9.2 mph - N/A   Overcast
2:15 PM 42.6 °F 37.2 °F 32.0 °F 66% 29.96 in 10.0 mi SSE 9.2 mph - N/A   Mostly Cloudy
2:35 PM 42.8 °F 38.0 °F 32.2 °F 66% 29.95 in 10.0 mi SSE 8.1 mph - N/A   Scattered Clouds
2:55 PM 43.0 °F 38.2 °F 32.0 °F 65% 29.95 in 10.0 mi SSE 8.1 mph - N/A   Clear
3:15 PM 43.7 °F 38.1 °F 32.2 °F 64% 29.95 in 10.0 mi SSE 10.4 mph - N/A   Clear
3:35 PM 43.9 °F 38.3 °F 32.7 °F 65% 29.95 in 10.0 mi SSE 10.4 mph - N/A   Clear
3:55 PM 43.0 °F 38.8 °F 33.1 °F 68% 29.93 in 10.0 mi SE 6.9 mph - N/A   Clear
4:15 PM 42.1 °F 38.4 °F 33.4 °F 71% 29.95 in 10.0 mi SSE 5.8 mph - N/A   Clear
4:35 PM 41.2 °F 37.3 °F 32.0 °F 70% 29.95 in 10.0 mi South 5.8 mph - N/A   Clear
4:55 PM 40.6 °F 36.0 °F 32.0 °F 71% 29.94 in 10.0 mi South 6.9 mph - N/A   Clear
5:15 PM 37.9 °F 33.5 °F 31.6 °F 78% 29.94 in 10.0 mi SSE 5.8 mph - N/A   Clear
5:35 PM 36.9 °F 32.2 °F 31.8 °F 82% 29.93 in 10.0 mi SSE 5.8 mph - N/A   Clear
5:55 PM 36.5 °F 31.0 °F 31.6 °F 83% 29.93 in 10.0 mi SE 6.9 mph - N/A   Clear
6:15 PM 36.5 °F 32.7 °F 31.5 °F 82% 29.93 in 10.0 mi SSE 4.6 mph - N/A   Clear
6:35 PM 36.1 °F 31.4 °F 31.1 °F 82% 29.93 in 10.0 mi SSE 5.8 mph - N/A   Clear
6:55 PM 37.6 °F 33.1 °F 31.3 °F 78% 29.93 in 10.0 mi SSE 5.8 mph - N/A   Clear
7:15 PM 37.4 °F 32.1 °F 32.0 °F 81% 29.93 in 10.0 mi SSE 6.9 mph - N/A   Clear
7:35 PM 36.9 °F 32.2 °F 31.6 °F 81% 29.92 in 10.0 mi SSE 5.8 mph - N/A   Clear
7:55 PM 37.0 °F 31.6 °F 31.6 °F 81% 29.91 in 10.0 mi South 6.9 mph - N/A   Clear
8:15 PM 37.0 °F 32.4 °F 31.5 °F 80% 29.91 in 10.0 mi South 5.8 mph - N/A   Clear
8:35 PM 36.5 °F 31.8 °F 31.1 °F 81% 29.90 in 10.0 mi South 5.8 mph - N/A   Clear
8:55 PM 36.0 °F 31.1 °F 31.1 °F 82% 29.90 in 10.0 mi South 5.8 mph - N/A   Clear
9:15 PM 37.6 °F 31.6 °F 30.9 °F 77% 29.89 in 10.0 mi South 8.1 mph - N/A   Clear
9:35 PM 38.3 °F 31.9 °F 30.9 °F 75% 29.88 in 10.0 mi South 9.2 mph - N/A   Clear
9:55 PM 38.5 °F 32.7 °F 30.7 °F 74% 29.87 in 10.0 mi South 8.1 mph - N/A   Clear
10:15 PM 38.3 °F 31.9 °F 30.6 °F 74% 29.87 in 10.0 mi South 9.2 mph - N/A   Clear
10:35 PM 38.5 °F 32.7 °F 30.2 °F 72% 29.86 in 10.0 mi South 8.1 mph - N/A   Clear
10:55 PM 38.5 °F 32.7 °F 30.2 °F 72% 29.85 in 10.0 mi SSW 8.1 mph - N/A   Clear
11:15 PM 38.5 °F 34.1 °F 30.0 °F 72% 29.85 in 10.0 mi SSW 5.8 mph - N/A   Clear
11:35 PM 39.6 °F 33.0 °F 29.8 °F 68% 29.85 in 10.0 mi SSW 10.4 mph - N/A   Clear
11:55 PM 41.0 °F 34.7 °F 29.1 °F 63% 29.85 in 10.0 mi SW 10.4 mph - N/A   Clear